Location: *
(35.2348°S, 91.3916°E)
Time: 18:23:16
(UTC+00:00)

CZ-2C R/B - Pass Details

Date: 23 October 2019
Orbit: 668 x 784 km, 98.1° (Epoch: 18 November)

Event Time Altitude Azimuth Distance (km) Brightness Sun altitude
Rises 22:04:19 0° 355° (N) 3,139 5.4 -11.8°
Reaches altitude 10° 22:06:44 10° 347° (NNW) 2,207 4.5 -11.4°
Maximum altitude 22:11:14 38° 279° (W) 1,073 2.8 -10.5°
Drops below altitude 10° 22:15:40 10° 210° (SSW) 2,171 4.8 -9.7°
Sets 22:18:03 0° 201° (SSW) 3,081 5.6 -9.2°
